This demonstration page uses our WeatherBlox Daily Observations layout. Learn more.

Left ArrowRight Arrow

41.12389, -100.76542

Hourly Observations for July 18, 2022

Temp ( °F °C ) Dew Point ( °F °C ) Humidity (%) Winds ( mph kmh ) Pressure ( in mb ) Visibility ( mi km ) Precip ( " mm )
12:53 am 00:53 Clear 74 23.3 67 19.4 79 79 E 6 9 29.94 1014 10 16 0.00 0.00
1:53 am 01:53 Clear 70 21.1 66 18.9 87 87 SE 7 11 29.93 1014 10 16 0.00 0.00
2:53 am 02:53 Clear 73 22.8 66 18.9 79 79 S 6 9 29.93 1014 10 16 0.00 0.00
3:53 am 03:53 Clear 72 22.2 65 18.3 79 79 S 3 6 29.93 1014 10 16 0.00 0.00
4:53 am 04:53 Clear 71 21.7 64 17.8 79 79 S 3 6 29.92 1013 10 16 0.00 0.00
5:53 am 05:53 Clear 69 20.6 63 17.2 81 81 SSE 3 6 29.92 1013 10 16 0.00 0.00
6:53 am 06:53 Sunny 69 20.6 63 17.2 81 81 Calm 29.92 1013 10 16 0.00 0.00
7:07 am 07:07 Mostly Sunny 70 21.1 64 17.8 82 82 S 9 15 29.90 1013 10 16 0.00 0.00
7:53 am 07:53 Sunny 73 22.8 65 18.3 76 76 VRB 3 6 29.91 1013 10 16 0.00 0.00
8:53 am 08:53 Sunny 79 26.1 65 18.3 62 62 Calm 29.91 1013 10 16 0.00 0.00
9:53 am 09:53 Sunny 85 29.4 67 19.4 55 55 S 5 7 29.91 1013 10 16 0.00 0.00
10:53 am 10:53 Sunny 93 33.9 59 15 32 32 S 8 13 29.88 1012 10 16 0.00 0.00
11:53 am 11:53 Sunny 96 35.6 57 13.9 27 27 SSE 12 19 29.86 1011 10 16 0.00 0.00
12:53 pm 12:53 Sunny 97 36.1 59 15 28 28 S 17 28 29.84 1010 10 16 0.00 0.00
1:53 pm 13:53 Sunny 101 38.3 59 15 25 25 S 16 26 29.81 1009 10 16 0.00 0.00
2:53 pm 14:53 Sunny 101 38.3 58 14.4 24 24 S 17 28 29.78 1009 10 16 0.00 0.00
3:53 pm 15:53 Sunny 103 39.4 56 13.3 21 21 S 17 28 29.75 1008 10 16 0.00 0.00
4:53 pm 16:53 Sunny 104 40 57 13.9 21 21 SSE 20 31 29.72 1007 10 16 0.00 0.00
5:53 pm 17:53 Sunny 103 39.4 57 13.9 22 22 SSE 17 28 29.71 1006 10 16 0.00 0.00
6:53 pm 18:53 Sunny 102 38.9 56 13.3 22 22 SSE 16 26 29.68 1005 10 16 0.00 0.00
7:53 pm 19:53 Sunny 99 37.2 54 12.2 22 22 SSE 15 24 29.67 1005 10 16 0.00 0.00
8:53 pm 20:53 Sunny 96 35.6 54 12.2 24 24 SSE 13 20 29.66 1005 10 16 0.00 0.00
9:53 pm 21:53 Clear 93 33.9 55 12.8 28 28 SSE 8 13 29.68 1005 10 16 0.00 0.00
10:53 pm 22:53 Clear 90 32.2 55 12.8 31 31 SSW 7 11 29.71 1006 10 16 0.00 0.00
11:53 pm 23:53 Mostly Clear 87 30.6 55 12.8 34 34 S 15 24 29.69 1005 10 16 0.00 0.00

Powered by AerisWeather